IRNSS-1G

Last updated on Sun Apr 12 2026 00:02:54 GMT+0000 (Coordinated Universal Time)

1 41469U 16027A 26101.47500845 -.00000329 00000+0 00000+0 0 9996 2 41469 5.0311 99.0499 0006050 333.0291 68.0710 1.00267197 36518
UTC large
Height (km)
Speed (km/s)
/
Latitude / Longitude
Inclination (degrees)
Orbital Period (minutes)
Azimuth
Elevation
Range (km)
Doppler Factor

Next 0 passes for location: London (51.5072 / 0.1276)

Sorry there are no passes over London.
IRNSS-1G